This is the latest recevied weather packets stored in our database for station/object N8HKU-5. If no packets are shown the sender has not sent any weather packets the latest 10 day(s).
| Time | Temp. | Humidity | Pressure | Rain* | Wind** | Luminosity | Snow |
|---|---|---|---|---|---|---|---|
| 1778145153 | 3.33° C | 83% | 1010.1 hPa | 0 mm | - | - | - |
| 1778144553 | 3.89° C | 80% | 1010.2 hPa | 0 mm | - | - | - |
| 1778143953 | 4.44° C | 80% | 1010.1 hPa | 0 mm | - | - | - |
| 1778143354 | 5° C | 81% | 1010.1 hPa | 0 mm | - | - | - |
| 1778142754 | 5° C | 82% | 1010.2 hPa | 0 mm | - | - | - |
| 1778142153 | 5° C | 81% | 1010.3 hPa | 0 mm | - | - | - |
| 1778141553 | 5.56° C | 80% | 1010.3 hPa | 0 mm | - | - | - |
| 1778140954 | 5.56° C | 78% | 1010.3 hPa | 0 mm | - | - | - |
| 1778140355 | 5.56° C | 77% | 1010.3 hPa | 0 mm | - | - | - |
| 1778139753 | 5.56° C | 77% | 1010.4 hPa | 0 mm | - | - | - |
| 1778139153 | 5.56° C | 77% | 1010.3 hPa | 0 mm | - | - | - |
| 1778138554 | 5° C | 78% | 1010.3 hPa | 0 mm | - | - | - |
| 1778137953 | 5° C | 82% | 1010.3 hPa | 0 mm | - | - | - |
| 1778137353 | 5° C | 81% | 1010.3 hPa | 0 mm | - | - | - |
| 1778136753 | 5° C | 80% | 1010.4 hPa | 0 mm | - | - | - |
| 1778136153 | 5° C | 77% | 1010.5 hPa | 0 mm | - | - | - |
| 1778135553 | 5° C | 77% | 1010.5 hPa | 0 mm | - | - | - |
| 1778134953 | 5.56° C | 78% | 1010.5 hPa | 0 mm | - | - | - |
| 1778134353 | 5.56° C | 81% | 1010.5 hPa | 0 mm | - | - | - |
| 1778133753 | 5.56° C | 80% | 1010.5 hPa | 0 mm | - | - | - |
| 1778133154 | 5.56° C | 79% | 1010.5 hPa | 0 mm | - | - | - |
| 1778132555 | 6.11° C | 78% | 1010.5 hPa | 0 mm | - | - | - |
| 1778131953 | 6.11° C | 80% | 1010.7 hPa | 0 mm | - | - | - |
| 1778131353 | 6.67° C | 81% | 1010.7 hPa | 0 mm | - | - | - |
| 1778130753 | 6.67° C | 79% | 1010.7 hPa | 0 mm | - | - | - |
* Rain latest hour (hover to see other rain measurements)
** Current wind speed in m/s (hover to see current wind gust speed)